www.pogodaiklimat.ru

Погода и климат >> Архив погоды >> Россия >> Ненецкий АО >> Нарьян-Мар


АРХИВ ПОГОДЫ в Нарьян-Маре

Время (UTC), дата Ветер
(напр.,м/с)
 
Видим.   Явления Облачность Т
(С)
Тd
(С)
f
(%)
Тe
(С)
Тes
(С)
Комфортность P
(гПа)
Po
(гПа)
Тmin
(С)
Tmax
(С)
R
(мм)
R24
(мм)
S
(см)
09 12.02 ЮЗ 5 20 км [диам. гололёда 1 мм] 10/10 330 м
[St]
-2.7 -4.3 89 -9 -9 тепло 1004.7 1003.3
12 12.02 Ю 6
{10}
4000 м слаб. ливневой снег {метель} 10/10 330 м
[Cb cap]
-3.9 -4.5 96 -12 -12 тепло 1003.9 1002.5
15 12.02 Ю 5
{10}
4000 м слаб. ливневой снег {метель} 10/10 330 м
[Cb cap]
-3.1 -3.6 96 -10 -10 тепло 1003.5 1002.1 -2.1 0.7
18 12.02 Ю 5
{10}
4000 м слаб. ливневой снег {метель} 10/10 420 м
[Cb calv]
-2.6 -3.0 97 -10 -10 тепло 1002.8 1001.4
21 12.02 Ю 6
{10}
4000 м слаб. ливневой снег {метель} 10/10 480 м
[Cb calv]
-2.0 -2.8 94 -9 -9 тепло 1002.0 1000.6
00 13.02 Ю 6-10
{10}
4000 м слаб. ливневой снег {метель} 10/10 330 м
[Cb cap]
-2.6 -3.4 94 -10 -10 тепло 1000.6 999.2
03 13.02 Ю 6
{10}
4000 м слаб. ливневой снег {метель} 10/10 600 м
[Cb calv]
-2.4 -3.4 93 -10 -10 тепло 999.2 997.9 -3.1 1
06 13.02 ЮЗ 6
{10}
4000 м слаб. ливневой снег {метель} 10/10 330 м
[Cb cap]
-2.6 -2.7 99 -10 -10 тепло 998.3 997.0
09 13.02 ЮЗ 4 4000 м слаб. ливневой снег {метель} 10/10 400 м
[Cb cap]
-1.9 -2.5 96 -8 -8 тепло 998.1 996.7
12 13.02 ЮЗ 4 4000 м слаб. ливневой снег {метель} 10/10 400 м
[Cb cap]
-1.4 -2.3 94 -7 -7 тепло 998.4 997.0
15 13.02 ЮЗ 4 4000 м слаб. ливневой снег 10/10 360 м
[Cb cap]
-1.9 -2.0 99 -8 -8 тепло 998.9 997.6 -1.4 2
18 13.02 З 3 4000 м слаб. ливневой снег 10/10 570 м
[Cb calv]
-3.8 -4.0 99 -9 -9 тепло 999.9 998.6
21 13.02 З 3 4000 м слаб. ливневой снег 10/10 480 м
[Cb calv]
-4.8 -5.5 95 -10 -10 тепло 1000.8 999.5
00 14.02 С 4 4000 м слаб. ливневой снег 10/10 300 м
[Cb cap]
-5.5 -6.2 95 -12 -12 тепло 1001.4 1000.1
03 14.02 С 6-11
{11}
4000 м слаб. ливневой снег {метель} 10/10 300 м
[Cb cap]
-10.5 -12.6 85 -19 -19 по сезону 1003.6 1002.2 -10.5 1 54
06 14.02 С 3
{11}
20 км {ливн. осадки, метель} 8/3 300 м
[St Ac lent Ci fib]
-14.7 -16.2 88 -21 -21 по сезону 1006.2 1004.8 -14.7
09 14.02 С 3 20 км 6/3 300 м
[St Ac trans Ci fib]
-13.0 -15.6 81 -19 -19 по сезону 1008.7 1007.2
12 14.02 ЮЗ 1 20 км 9/9 840 м
[Sc]
-11.6 -14.4 80 -14 -14 тепло 1009.2 1007.8
15 14.02 З 3 20 км 6/0
[Ac trans]
-11.9 -13.9 85 -18 -18 по сезону 1008.8 1007.4 -10.5
18 14.02 ЮЗ 2 20 км 4/0
[Ac trans]
-12.7 -14.4 87 -17 -17 по сезону 1008.8 1007.4
21 14.02 ЮЗ 3 20 км ясно -14.8 -16.7 85 -21 -21 по сезону 1008.1 1006.7
00 15.02 Ю 2 20 км 3/0
[Ci fib]
-16.4 -18.5 84 -22 -22 по сезону 1006.0 1004.5
03 15.02 Ю 3 20 км 3/0
[Ac trans Ci fib]
-15.4 -17.5 84 -22 -22 по сезону 1003.2 1001.8 -16.9 54
06 15.02 Ю 5 20 км позёмок 9/0
[Ac trans Ci]
-13.4 -15.4 85 -22 -22 по сезону 1000.4 999.0
09 15.02 Ю 7-13
{14}
20 км позёмок 9/0
[Ac trans Ci]
-11.1 -14.4 77 -20 -20 по сезону 997.5 996.1
12 15.02 Ю 8-13
{13}
20 км позёмок 9/0
[Ac trans Ci fib]
-11.3 -14.5 77 -21 -21 по сезону 995.0 993.6
15 15.02 Ю 6-10
{14}
20 км позёмок 9/6 450 м
[Sc Ac trans]
-11.1 -13.8 80 -20 -20 по сезону 994.0 992.6 -10.8 0.0
18 15.02 Ю 6-11
{12}
4000 м слаб. снег {метель} 10/0
[Ac As]
-10.2 -12.6 83 -19 -19 по сезону 992.0 990.6
21 15.02 Ю 6
{11}
4000 м слаб. снег {метель} 10/6 450 м
[Sc As op]
-8.7 -10.9 84 -17 -17 по сезону 991.5 990.1
00 16.02 Ю 6
{11}
4000 м слаб. снег {метель} 10/8 840 м
[Sc As op]
-8.0 -10.3 83 -16 -16 тепло 990.9 989.5
03 16.02 Ю 5
{10}
4000 м слаб. ливневой снег 10/10 540 м
[Cb calv]
-7.7 -10.0 84 -15 -15 тепло 991.0 989.7 -11.1 0.4 53
06 16.02 ЮЗ 4 4000 м слаб. ливневой снег 10/10 300 м
[Cb cap]
-7.4 -9.2 87 -14 -14 тепло 991.2 989.8
09 16.02 ЮЗ 4 4000 м слаб. снег 10/8 270 м
[Frnb As op]
-5.3 -7.0 88 -12 -12 тепло 992.0 990.6
12 16.02 З 2 20 км {ливн. осадки, снег} 10/10 1200 м
[Sc]
-4.6 -7.2 82 -9 -9 тепло 992.8 991.4
15 16.02 З 2 20 км 9/8 1080 м
[Sc Ac trans]
-4.7 -5.9 91 -9 -9 тепло 993.0 991.6 -4.0 0.2
18 16.02 З 2 20 км в посл. час снег 10/10 270 м
[St]
-4.1 -4.1 100 -9 -9 тепло 991.9 990.5
21 16.02 ЮЗ 3 20 км в посл. час переохл. осадки (гололёд) {морось} [диам. гололёда 1 мм] 10/10 240 м
[St]
-5.3 -5.3 100 -11 -11 тепло 990.5 989.1
00 17.02 Ю 2 20 км {морось} [диам. гололёда 1 мм] 10/10 270 м
[St]
-5.3 -5.4 99 -10 -10 тепло 987.7 986.3
03 17.02 ЮВ 4 20 км [диам. гололёда 1 мм] 10/8 270 м
[St Ac und]
-5.3 -5.4 99 -12 -12 тепло 985.1 983.8 -5.7 0.0 53
06 17.02 ЮВ 3 20 км [диам. гололёда 1 мм] 10/8 420 м
[Sc Ac und]
-5.9 -7.1 91 -12 -12 тепло 983.1 981.7 -5.9
09 17.02 ЮВ 4 4000 м слаб. снег 10/9 330 м
[Frnb As op]
-6.2 -7.5 90 -13 -13 тепло 982.1 980.7
12 17.02 В 4 2000 м снег {метель} 10/9 300 м
[Frnb As op]
-7.8 -9.0 91 -15 -15 по сезону 982.2 980.8
15 17.02 В 3 4000 м слаб. снег {метель} 10/9 270 м
[Frnb As op]
-7.7 -8.8 92 -14 -14 тепло 983.7 982.3 -5.2 2
18 17.02 В 2 4000 м слаб. снег {метель} 10/6 360 м
[Frnb As trans]
-8.3 -9.4 92 -13 -13 тепло 985.5 984.2
21 17.02 С 4 4000 м слаб. снег 10/8 330 м
[Frnb As trans]
-8.6 -9.7 92 -16 -16 по сезону 988.2 986.9
00 18.02 С 5
{13}
4000 м слаб. снег {метель} 10/8 240 м
[Frnb As op]
-11.7 -13.4 87 -20 -20 по сезону 991.6 990.2
03 18.02 С 3
{11}
4000 м слаб. снег {метель} 10/8 420 м
[Sc As op]
-13.0 -14.9 86 -19 -19 по сезону 994.1 992.7 -13.0 2 56
06 18.02 С 3 20 км {снег, метель} 3/3 600 м
[Sc]
-15.1 -17.4 83 -22 -22 по сезону 997.8 996.3 -15.1
09 18.02 СЗ 2 20 км 8/6 500 м
[Sc Ac trans]
-14.6 -17.4 79 -20 -19 по сезону 1001.0 999.6
12 18.02 З 2 20 км 4/3 600 м
[Sc Ac trans Ci fib]
-13.6 -16.3 80 -18 -18 по сезону 1002.8 1001.4
15 18.02 ЮЗ 2 20 км ясно -18.2 -20.4 83 -24 -24 по сезону 1004.0 1002.5 -13.0 0.0
18 18.02 З 2 20 км ясно -19.2 -21.5 82 -25 -25 по сезону 1004.4 1002.9
21 18.02 Ю 2 20 км 3/0
[Ac trans]
-20.5 -22.9 81 -26 -26 по сезону 1003.5 1002.0
00 19.02 ЮЗ 3 20 км 3/3 300 м
[St]
-17.9 -20.1 83 -25 -25 по сезону 1001.8 1000.3
03 19.02 Ю 4 4000 м слаб. ливневой снег 9/9 700 м
[Cb calv]
-15.9 -17.9 85 -24 -24 по сезону 999.9 998.4 -20.6 0.0 56
06 19.02 Ю 4 4000 м слаб. снег 10/8 480 м
[Sc As op]
-15.3 -17.3 85 -23 -23 по сезону 998.1 996.6

 

Местоположение метеостанции Нарьян-Мар (Ненецкий АО, Россия): широта 67.63 долгота 53.02 высота над уровнем моря 12 м.

В архиве по умолчанию представлена погода в Нарьян-Маре за последнюю неделю. Архивные данные за месяц целиком и за предыдущие месяцы, начиная с января 2011 года, Вы можете получить, выбрав интересующий диапазон дат из раскрывающегося списка и нажав кнопку "Ввод!".


*Определитесь, кто Вы:
робот инопланетянин человек

Внимание! Время в таблицах - всемирное. Для получения местного времени необходимо прибавить поправку, которая равна 3 ч.

Смотрите также архив погоды в соседних городах и на ближайших метеорологических станциях:

Погода в Коткино (Ненецкий АО, Россия) (105 км)
Погода в Сенгейском Шаре (Ненецкий АО, Россия) (120 км)
Погода на Мысе Константиновском (Ненецкий АО, Россия) (145 км)
Погода в Ходоварихе (Ненецкий АО, Россия) (148 км)
Погода в Окуневом Носу (Коми, Россия) (155 км)
Погода в Индиге (Ненецкий АО, Россия) (184 км)
Погода в Бугрино (Ненецкий АО, Россия) (200 км)
Погода в Мутном Материке (Коми, Россия) (209 км)
Погода в Хорей-Вере (Ненецкий АО, Россия) (214 км)
Погода в Варандее (Ненецкий АО, Россия) (245 км)

Пояснения к столбцам:

Ветер - указаны скорость ветра в м/с - средняя за 10 мин, порывы в срок и между сроками (в фигурных скобках) и направление, откуда дует ветер: С - северный, СВ - северо-восточный, В - восточный, ЮВ - юго-восточный, Ю - южный, ЮЗ - юго-западный, З - западный, СЗ - северо-западный.
Видимость - горизонтальная дальность видимости в метрах или километрах. При видимости от 1 до 10 км при отсутствии осадков обычно наблюдается дымка, при ухудшении видимости до 1 км и менее - туман. В сухую погоду видимость может ухудшаться дымом, пылью или мглою.
Явления - указаны атмосферные явления, наблюдавшиеся в срок или в последний час перед сроком; фигурными скобками обозначены явления, наблюдавшиеся между сроками (за 1-3 часа до срока); квадратными скобками обозначены град или гололедные отложения с указанием их диаметра в мм.
Облачность - указаны через наклонную черту общая и нижняя облачность в баллах и высота нижней границы облаков в метрах; квадратными скобками обозначены формы облаков: Ci - перистые, Cs - перисто-слоистые, Cc - перисто-кучевые, Ac - высококучевые, As - высокослоистые, Sc - слоисто-кучевые, Ns - слоисто-дождевые, Cu - кучевые, Cb - кучево-дождевые. Подробнее классификацию облаков см. в Атласе облаков (PDF).
T - Температура воздуха - температура, измеренная на высоте 2 м над землей.
Td - Температура точки росы - температура, при понижении до которой содержащийся в воздухе водяной пар достигнет насыщения.
f - Относительная влажность воздуха - влажноcть воздуха, измеренная на высоте 2 м над землей.
Te - Эффективная температура - температура, которую ощущает одетый по сезону человек в тени. Характеристика душности погоды. При расчете учитывается влияние влажности воздуха и скорости ветра на теплоощущения человека.
Tes - Эффективная температура на солнце - температура, которую ощущает человек, с поправкой на солнечный нагрев. Характеристика знойности погоды. Зависит от высоты солнца над горизонтом, облачности и скорости ветра. Ночью, в пасмурную погоду, а также при ветре 12 м/с и более поправка равна нулю.
P - Атмосферное давление - приведенное к уровню моря атмосферное давление.
Po - Атмосферное давление - измеренное на уровне метеостанции атмосферное давление.
Tmin - Минимальная температура - минимум температуры воздуха на высоте 2 м над землей.
Tmax - Максимальная температура - максимум температуры воздуха на высоте 2 м над землей.
R - Количество осадков - Количество выпавших осадков за период времени, мм. При наведении курсора мыши на число - период времени, за который выпало указанное количество осадков.
R24 - Количество осадков - Количество выпавших осадков за 24 часа, мм.
S - Снежный покров - Высота снежного покрова, см. При наведении курсора мыши на число - состояние снежного покрова и степень покрытия местности в баллах.